Time,TemperatureF,DewpointF,PressureIn,WindDirection,WindDirectionDegrees,WindSpeedMPH,WindSpeedGustMPH,Humidity,HourlyPrecipIn,Conditions,Clouds,dailyrainin,SolarRadiationWatts/m^2,SoftwareType,DateUTC
2014-03-12 00:12:00,71.9,69.0,29.90,SW,228,0.0,-999.0,90,-99.99,,,0.00,0,weatherlink.com 1.10,2014-03-12 04:12:00,
2014-03-12 00:27:00,71.9,69.0,29.90,SW,225,0.0,-999.0,90,-99.99,,,0.00,0,weatherlink.com 1.10,2014-03-12 04:27:00,
2014-03-12 00:42:00,71.9,69.0,29.90,SW,225,0.0,-999.0,90,-99.99,,,0.00,0,weatherlink.com 1.10,2014-03-12 04:42:00,
2014-03-12 00:57:00,72.2,69.0,29.90,WSW,238,2.0,-999.0,90,-99.99,,,0.00,0,weatherlink.com 1.10,2014-03-12 04:57:00,
2014-03-12 01:12:00,72.4,69.0,29.89,SW,218,0.0,-999.0,90,-99.99,,,0.00,0,weatherlink.com 1.10,2014-03-12 05:12:00,
2014-03-12 01:27:00,72.4,69.0,29.89,SSW,211,0.0,-999.0,90,-99.99,,,0.00,0,weatherlink.com 1.10,2014-03-12 05:27:00,
2014-03-12 01:42:00,72.3,69.0,29.89,SW,232,0.0,-999.0,90,-99.99,,,0.00,0,weatherlink.com 1.10,2014-03-12 05:42:00,
2014-03-12 01:57:00,72.6,70.0,29.89,WSW,243,0.0,-999.0,90,-99.99,,,0.00,0,weatherlink.com 1.10,2014-03-12 05:57:00,
2014-03-12 02:12:00,72.8,70.0,29.88,SW,233,0.0,-999.0,90,-99.99,,,0.00,0,weatherlink.com 1.10,2014-03-12 06:12:00,
2014-03-12 02:27:00,72.6,69.0,29.88,SW,217,0.0,-999.0,89,-99.99,,,0.00,0,weatherlink.com 1.10,2014-03-12 06:27:00,
2014-03-12 02:42:00,72.6,69.0,29.87,WSW,245,0.0,-999.0,89,-99.99,,,0.00,0,weatherlink.com 1.10,2014-03-12 06:42:00,
2014-03-12 02:57:00,72.5,69.0,29.86,SW,236,0.0,-999.0,89,-99.99,,,0.00,0,weatherlink.com 1.10,2014-03-12 06:57:00,
2014-03-12 03:12:00,72.5,69.0,29.85,SW,232,0.0,-999.0,89,-99.99,,,0.00,0,weatherlink.com 1.10,2014-03-12 07:12:00,
2014-03-12 03:27:00,72.4,69.0,29.84,SSW,194,0.0,-999.0,90,-99.99,,,0.00,0,weatherlink.com 1.10,2014-03-12 07:27:00,
2014-03-12 03:42:00,72.4,69.0,29.84,SW,230,0.0,-999.0,90,-99.99,,,0.00,0,weatherlink.com 1.10,2014-03-12 07:42:00,
2014-03-12 03:57:00,72.2,69.0,29.83,South,190,0.0,-999.0,90,-99.99,,,0.00,0,weatherlink.com 1.10,2014-03-12 07:57:00,
2014-03-12 04:12:00,72.1,69.0,29.83,SW,227,0.0,-999.0,90,-99.99,,,0.00,0,weatherlink.com 1.10,2014-03-12 08:12:00,
2014-03-12 04:27:00,72.3,69.0,29.84,WSW,240,0.0,-999.0,90,-99.99,,,0.00,0,weatherlink.com 1.10,2014-03-12 08:27:00,
2014-03-12 04:42:00,72.3,69.0,29.83,WSW,243,0.0,-999.0,90,-99.99,,,0.00,0,weatherlink.com 1.10,2014-03-12 08:42:00,
2014-03-12 04:57:00,72.1,69.0,29.83,SSE,157,0.0,-999.0,90,-99.99,,,0.00,0,weatherlink.com 1.10,2014-03-12 08:57:00,
2014-03-12 05:12:00,72.1,69.0,29.82,South,181,0.0,-999.0,90,-99.99,,,0.00,0,weatherlink.com 1.10,2014-03-12 09:12:00,
2014-03-12 05:27:00,72.1,69.0,29.82,WSW,246,0.0,-999.0,90,-99.99,,,0.00,0,weatherlink.com 1.10,2014-03-12 09:27:00,
2014-03-12 05:42:00,72.0,69.0,29.82,WSW,248,0.0,-999.0,90,-99.99,,,0.00,0,weatherlink.com 1.10,2014-03-12 09:42:00,
2014-03-12 05:57:00,71.8,69.0,29.82,WSW,246,0.0,-999.0,91,-99.99,,,0.00,0,weatherlink.com 1.10,2014-03-12 09:57:00,
2014-03-12 06:12:00,71.9,69.0,29.82,SSW,211,0.0,-999.0,91,-99.99,,,0.00,0,weatherlink.com 1.10,2014-03-12 10:12:00,
2014-03-12 06:27:00,72.0,69.0,29.83,SW,219,0.0,-999.0,91,-99.99,,,0.00,0,weatherlink.com 1.10,2014-03-12 10:27:00,
2014-03-12 06:42:00,72.0,69.0,29.84,SW,216,0.0,-999.0,91,-99.99,,,0.00,0,weatherlink.com 1.10,2014-03-12 10:42:00,
2014-03-12 06:57:00,72.0,69.0,29.85,SW,218,0.0,-999.0,91,-99.99,,,0.00,0,weatherlink.com 1.10,2014-03-12 10:57:00,
2014-03-12 07:12:00,72.2,70.0,29.84,SW,223,0.0,-999.0,91,-99.99,,,0.00,0,weatherlink.com 1.10,2014-03-12 11:12:00,
2014-03-12 07:27:00,72.3,70.0,29.84,South,175,0.0,-999.0,91,-99.99,,,0.00,0,weatherlink.com 1.10,2014-03-12 11:27:00,
2014-03-12 07:42:00,72.3,70.0,29.85,South,180,0.0,-999.0,91,-99.99,,,0.00,0,weatherlink.com 1.10,2014-03-12 11:42:00,
2014-03-12 07:57:00,72.2,70.0,29.86,South,180,0.0,-999.0,91,-99.99,,,0.00,9,weatherlink.com 1.10,2014-03-12 11:57:00,
2014-03-12 08:12:00,72.3,70.0,29.85,SW,220,0.0,-999.0,91,-99.99,,,0.00,14,weatherlink.com 1.10,2014-03-12 12:12:00,
2014-03-12 08:27:00,72.6,70.0,29.86,South,186,0.0,-999.0,91,-99.99,,,0.00,23,weatherlink.com 1.10,2014-03-12 12:27:00,
2014-03-12 08:42:00,73.2,71.0,29.86,South,186,0.0,-999.0,91,-99.99,,,0.00,26,weatherlink.com 1.10,2014-03-12 12:42:00,
2014-03-12 08:57:00,73.8,71.0,29.87,West,267,0.0,-999.0,91,-99.99,,,0.00,32,weatherlink.com 1.10,2014-03-12 12:57:00,
2014-03-12 09:12:00,74.5,72.0,29.87,SW,215,0.0,-999.0,91,-99.99,,,0.00,39,weatherlink.com 1.10,2014-03-12 13:12:00,
2014-03-12 09:27:00,75.3,72.0,29.88,SW,236,0.0,-999.0,89,-99.99,,,0.00,47,weatherlink.com 1.10,2014-03-12 13:27:00,
2014-03-12 09:42:00,76.1,72.0,29.89,SW,224,0.0,-999.0,87,-99.99,,,0.00,49,weatherlink.com 1.10,2014-03-12 13:42:00,
2014-03-12 09:57:00,76.9,72.0,29.89,SW,236,2.0,-999.0,85,-99.99,,,0.00,49,weatherlink.com 1.10,2014-03-12 13:57:00,
2014-03-12 10:12:00,77.7,73.0,29.90,SW,232,0.0,-999.0,84,-99.99,,,0.00,67,weatherlink.com 1.10,2014-03-12 14:12:00,
2014-03-12 10:27:00,78.6,73.0,29.89,ESE,121,0.0,-999.0,82,-99.99,,,0.00,67,weatherlink.com 1.10,2014-03-12 14:27:00,
2014-03-12 10:42:00,78.9,72.0,29.90,SW,234,2.0,-999.0,79,-99.99,,,0.00,56,weatherlink.com 1.10,2014-03-12 14:42:00,
2014-03-12 10:57:00,79.2,72.0,29.90,WSW,248,3.0,-999.0,78,-99.99,,,0.00,63,weatherlink.com 1.10,2014-03-12 14:57:00,
2014-03-12 11:12:00,79.3,72.0,29.91,WSW,238,4.0,-999.0,78,-99.99,,,0.00,83,weatherlink.com 1.10,2014-03-12 15:12:00,
2014-03-12 11:27:00,79.5,72.0,29.90,SW,227,1.0,-999.0,78,-99.99,,,0.00,209,weatherlink.com 1.10,2014-03-12 15:27:00,
2014-03-12 11:42:00,81.1,72.0,29.90,WSW,241,2.0,-999.0,74,-99.99,,,0.00,680,weatherlink.com 1.10,2014-03-12 15:42:00,
2014-03-12 11:57:00,81.1,72.0,29.91,SW,228,4.0,-999.0,74,-99.99,,,0.00,650,weatherlink.com 1.10,2014-03-12 15:57:00,
2014-03-12 12:12:00,80.7,73.0,29.90,WSW,243,0.0,-999.0,76,-99.99,,,0.00,696,weatherlink.com 1.10,2014-03-12 16:12:00,
2014-03-12 12:27:00,80.5,73.0,29.90,WSW,240,2.0,-999.0,77,-99.99,,,0.00,717,weatherlink.com 1.10,2014-03-12 16:27:00,
2014-03-12 12:42:00,80.7,73.0,29.90,SW,221,3.0,-999.0,76,-99.99,,,0.00,747,weatherlink.com 1.10,2014-03-12 16:42:00,
2014-03-12 12:57:00,80.9,72.0,29.89,SW,236,3.0,-999.0,74,-99.99,,,0.00,756,weatherlink.com 1.10,2014-03-12 16:57:00,
2014-03-12 13:12:00,80.9,72.0,29.89,SW,218,3.0,-999.0,74,-99.99,,,0.00,765,weatherlink.com 1.10,2014-03-12 17:12:00,
2014-03-12 13:27:00,81.7,72.0,29.88,West,259,6.0,-999.0,72,-99.99,,,0.00,775,weatherlink.com 1.10,2014-03-12 17:27:00,
2014-03-12 13:42:00,82.4,72.0,29.87,WSW,257,2.0,-999.0,70,-99.99,,,0.00,779,weatherlink.com 1.10,2014-03-12 17:42:00,
2014-03-12 13:57:00,82.1,72.0,29.86,SW,224,0.0,-999.0,71,-99.99,,,0.00,777,weatherlink.com 1.10,2014-03-12 17:57:00,
2014-03-12 14:12:00,83.1,71.0,29.86,WSW,239,2.0,-999.0,68,-99.99,,,0.00,775,weatherlink.com 1.10,2014-03-12 18:12:00,
2014-03-12 14:27:00,82.5,72.0,29.85,WSW,257,3.0,-999.0,70,-99.99,,,0.00,768,weatherlink.com 1.10,2014-03-12 18:27:00,
2014-03-12 14:42:00,82.6,72.0,29.84,SSW,207,4.0,-999.0,71,-99.99,,,0.00,754,weatherlink.com 1.10,2014-03-12 18:42:00,
2014-03-12 14:57:00,83.2,72.0,29.83,WSW,248,3.0,-999.0,68,-99.99,,,0.00,731,weatherlink.com 1.10,2014-03-12 18:57:00,
2014-03-12 15:12:00,81.5,72.0,29.83,WSW,246,3.0,-999.0,72,-99.99,,,0.00,714,weatherlink.com 1.10,2014-03-12 19:12:00,
2014-03-12 15:27:00,81.2,71.0,29.82,WSW,240,4.0,-999.0,72,-99.99,,,0.00,687,weatherlink.com 1.10,2014-03-12 19:27:00,
2014-03-12 15:42:00,82.9,72.0,29.82,SSW,211,0.0,-999.0,70,-99.99,,,0.00,668,weatherlink.com 1.10,2014-03-12 19:42:00,
2014-03-12 15:57:00,83.4,72.0,29.82,SW,234,1.0,-999.0,69,-99.99,,,0.00,635,weatherlink.com 1.10,2014-03-12 19:57:00,
2014-03-12 16:12:00,81.2,72.0,29.82,SW,226,0.0,-999.0,74,-99.99,,,0.00,304,weatherlink.com 1.10,2014-03-12 20:12:00,
2014-03-12 16:27:00,80.5,72.0,29.82,SW,234,1.0,-999.0,74,-99.99,,,0.00,264,weatherlink.com 1.10,2014-03-12 20:27:00,
2014-03-12 16:42:00,79.7,72.0,29.81,SW,229,2.0,-999.0,76,-99.99,,,0.00,258,weatherlink.com 1.10,2014-03-12 20:42:00,
2014-03-12 16:57:00,79.1,71.0,29.81,SW,226,0.0,-999.0,77,-99.99,,,0.00,156,weatherlink.com 1.10,2014-03-12 20:57:00,
2014-03-12 17:12:00,78.1,72.0,29.81,SW,229,0.0,-999.0,80,-99.99,,,0.00,102,weatherlink.com 1.10,2014-03-12 21:12:00,
2014-03-12 17:27:00,77.6,71.0,29.81,WSW,255,0.0,-999.0,81,-99.99,,,0.00,107,weatherlink.com 1.10,2014-03-12 21:27:00,
2014-03-12 17:42:00,77.3,71.0,29.81,WSW,238,2.0,-999.0,82,-99.99,,,0.00,44,weatherlink.com 1.10,2014-03-12 21:42:00,
2014-03-12 17:57:00,76.8,71.0,29.82,WSW,238,1.0,-999.0,83,-99.99,,,0.00,33,weatherlink.com 1.10,2014-03-12 21:57:00,
2014-03-12 18:12:00,76.5,71.0,29.82,WSW,245,0.0,-999.0,84,-99.99,,,0.00,23,weatherlink.com 1.10,2014-03-12 22:12:00,
2014-03-12 18:27:00,76.2,71.0,29.82,SSW,212,0.0,-999.0,85,-99.99,,,0.00,7,weatherlink.com 1.10,2014-03-12 22:27:00,
2014-03-12 18:42:00,76.0,71.0,29.82,SSW,192,1.0,-999.0,85,-99.99,,,0.00,7,weatherlink.com 1.10,2014-03-12 22:42:00,
2014-03-12 18:57:00,75.8,71.0,29.82,SSW,212,0.0,-999.0,86,-99.99,,,0.00,11,weatherlink.com 1.10,2014-03-12 22:57:00,
2014-03-12 19:12:00,75.7,71.0,29.83,SW,223,0.0,-999.0,86,-99.99,,,0.00,9,weatherlink.com 1.10,2014-03-12 23:12:00,
2014-03-12 19:27:00,75.5,71.0,29.83,WSW,246,0.0,-999.0,87,-99.99,,,0.00,0,weatherlink.com 1.10,2014-03-12 23:27:00,
2014-03-12 19:42:00,74.9,71.0,29.84,WSW,252,2.0,-999.0,88,-99.99,,,0.00,0,weatherlink.com 1.10,2014-03-12 23:42:00,
2014-03-12 19:57:00,72.3,68.0,29.84,SW,234,1.0,-999.0,87,-99.99,,,0.08,0,weatherlink.com 1.10,2014-03-12 23:57:00,
2014-03-12 20:12:00,70.7,68.0,29.84,SW,215,0.0,-999.0,90,-99.99,,,0.08,0,weatherlink.com 1.10,2014-03-13 00:12:00,
2014-03-12 20:27:00,71.1,68.0,29.85,South,186,0.0,-999.0,91,-99.99,,,0.08,0,weatherlink.com 1.10,2014-03-13 00:27:00,
2014-03-12 20:42:00,71.6,69.0,29.85,South,188,0.0,-999.0,91,-99.99,,,0.08,0,weatherlink.com 1.10,2014-03-13 00:42:00,
2014-03-12 20:57:00,72.0,69.0,29.86,South,191,1.0,-999.0,91,-99.99,,,0.08,0,weatherlink.com 1.10,2014-03-13 00:57:00,
2014-03-12 21:12:00,72.4,70.0,29.87,SSW,210,0.0,-999.0,91,-99.99,,,0.08,0,weatherlink.com 1.10,2014-03-13 01:12:00,
2014-03-12 21:27:00,72.4,70.0,29.87,WSW,252,0.0,-999.0,91,-99.99,,,0.08,0,weatherlink.com 1.10,2014-03-13 01:27:00,
2014-03-12 21:42:00,72.6,70.0,29.88,West,267,2.0,-999.0,91,-99.99,,,0.08,0,weatherlink.com 1.10,2014-03-13 01:42:00,
2014-03-12 21:57:00,72.8,70.0,29.89,West,280,0.0,-999.0,91,-99.99,,,0.08,0,weatherlink.com 1.10,2014-03-13 01:57:00,
2014-03-12 22:12:00,72.5,70.0,29.88,WNW,293,1.0,-999.0,90,-99.99,,,0.08,0,weatherlink.com 1.10,2014-03-13 02:12:00,
2014-03-12 22:27:00,72.6,70.0,29.88,WNW,282,0.0,-999.0,91,-99.99,,,0.08,0,weatherlink.com 1.10,2014-03-13 02:27:00,
2014-03-12 22:42:00,72.7,70.0,29.88,WNW,285,0.0,-999.0,91,-99.99,,,0.08,0,weatherlink.com 1.10,2014-03-13 02:42:00,
2014-03-12 22:57:00,72.7,70.0,29.88,WNW,285,0.0,-999.0,91,-99.99,,,0.08,0,weatherlink.com 1.10,2014-03-13 02:57:00,
2014-03-12 23:12:00,72.7,70.0,29.88,WNW,289,0.0,-999.0,91,-99.99,,,0.08,0,weatherlink.com 1.10,2014-03-13 03:12:00,
2014-03-12 23:27:00,72.7,70.0,29.89,WNW,284,0.0,-999.0,91,-99.99,,,0.08,0,weatherlink.com 1.10,2014-03-13 03:27:00,
2014-03-12 23:42:00,72.8,70.0,29.88,WNW,294,0.0,-999.0,91,-99.99,,,0.08,0,weatherlink.com 1.10,2014-03-13 03:42:00,
2014-03-12 23:57:00,72.7,70.0,29.89,WNW,296,0.0,-999.0,91,-99.99,,,0.08,0,weatherlink.com 1.10,2014-03-13 03:57:00,